{"data":{"norad_id":49209,"intl_designator":"2021-083Z","name":"ONEWEB-0343","alt_names":[],"object_type":"PAYLOAD","status":"ACTIVE","operator":null,"country":"UK","launch_date":"2021-09-14","launch_site_code":"TYMSC","launch_vehicle":null,"mission":null,"orbit_class":"UNKNOWN","rcs_meters":null,"size_class":null,"mass_kg":null,"dimensions":null,"purposes":["comms"],"wikipedia_slug":null,"has_3d_model":false,"image_url":null,"decayed_at":null,"tle_current":{"epoch":"2026-09-20T03:30:20.943072Z","epoch_age_seconds":56361,"freshness":"FRESH","line1":"1 49209U 21083Z   26263.14607573  .00000200  00000+0  47441-3 0  9994","line2":"2 49209  87.9161 316.5885 0001651  87.7795 272.3526 13.18686608242552","mean_motion":13.18686608,"eccentricity":0.0001651,"inclination_deg":87.9161,"raan_deg":316.5885,"arg_perigee_deg":87.7795,"mean_anomaly_deg":272.3526,"bstar":0.00047441,"rev_number":24255,"period_min":109.19956199328,"perigee_km":1188.4913440531,"apogee_km":1190.9902573028,"semimajor_km":7567.877800678,"source":"CELESTRAK","updated_at":"2026-09-20T09:00:44.665186Z"}}}